Cloud_Cover
0 0 0 0 0 0 0 0 0 0 0 3 100 41 4 50 72 5 60 89 100 37 100 100 100 100 99 100 100 100 100 100 100 88 100 87 2 1 2 7 99 81 5 13 99
0 0 0 0 0 0 0 0 0 0 0 0 4 85 100 24 20 5 96 95 12 100 100 100 100 100 100 100 100 100 95 100 100 87 95 100 100 97 24 1 5 31 4 4 55
48 0 0 0 0 0 0 0 0 0 0 3 1 6 100 97 13 94 16 61 100 100 100 100 100 100 100 100 100 100 100 100 100 56 97 100 100 100 71 42 8 5 5 5 22
0 0 1 0 0 0 0 0 0 0 0 0 0 0 92 100 100 100 100 5 34 100 11 100 100 100 100 100 100 100 99 72 10 100 100 89 100 100 100 100 100 100 97 100 91
0 0 0 5 0 0 0 0 0 0 0 0 0 4 0 70 100 100 100 100 78 12 100 100 100 100 100 100 100 100 100 84 51 36 100 95 69 99 100 100 99 100 41 49 76
0 0 0 4 5 0 0 0 0 0 0 0 0 0 6 3 17 100 100 100 100 100 99 94 100 100 100 100 100 100 100 100 100 100 20 100 100 100 100 100 100 83 20 5 38
5 0 2 5 5 3 0 0 0 0 0 0 0 0 0 16 35 22 23 100 100 100 100 100 88 100 100 100 100 100 100 100 100 100 100 100 100 100 100 100 100 100 62 4 5
5 4 5 5 5 34 4 0 0 0 0 0 0 0 0 0 4 57 51 26 6 90 100 100 100 94 100 100 88 100 100 100 98 100 100 100 100 100 100 100 100 100 100 100 7
5 5 5 22 5 72 21 4 0 0 0 0 0 0 0 0 0 4 2 5 5 5 3 50 100 100 98 100 100 100 100 100 100 100 100 100 100 100 100 97 55 85 100 98 100
24 9 5 56 52 37 75 12 4 1 0 0 0 0 0 0 0 0 1 2 4 5 4 4 10 100 99 89 100 100 100 100 100 100 100 100 100 100 100 100 100 100 67 95 100
92 52 5 5 100 94 100 100 8 5 0 0 0 0 0 0 0 0 0 0 0 0 29 50 41 5 100 100 29 63 100 100 100 100 100 100 100 100 100 100 100 100 100 100 100
100 51 41 100 100 100 99 100 88 7 4 0 0 0 0 0 0 0 0 0 0 0 0 0 5 20 3 54 78 88 63 100 100 100 100 100 100 100 100 100 100 100 100 99 75
83 69 89 100 100 100 100 100 100 75 9 0 0 0 0 0 0 0 0 0 0 0 4 0 1 3 72 46 22 63 99 100 100 100 100 100 100 100 100 100 100 100 100 100 100
33 100 100 100 100 100 100 100 100 100 34 5 5 0 0 0 0 0 0 0 0 0 0 2 5 12 5 5 41 100 90 29 100 100 100 100 100 100 100 100 100 100 100 100 100
100 100 100 100 100 100 100 100 100 98 67 28 5 2 0 0 0 0 0 0 0 0 0 0 0 40 23 36 74 36 100 99 98 100 99 100 100 100 100 100 100 100 100 100 82
19 100 100 100 100 100 100 100 100 80 89 100 94 5 1 0 0 0 0 0 0 0 0 0 0 0 3 5 6 5 65 90 96 71 17 5 4 32 65 35 5 7 29 10 5
21 83 100 100 100 100 100 100 99 53 100 100 100 25 5 5 0 0 0 0 4 1 0 0 0 0 0 1 88 100 53 86 77 41 92 26 5 0 2 2 0 0 0 0 0
100 95 86 100 100 100 100 100 100 100 100 100 100 98 5 5 0 4 3 6 49 5 3 0 0 0 0 0 4 89 100 97 72 4 0 0 3 0 0 0 0 0 0 0 0
100 100 100 97 100 100 100 99 100 100 100 100 100 100 57 4 0 2 5 5 5 9 6 0 0 0 0 0 0 0 0 2 3 2 5 4 5 0 0 0 0 0 0 0 0
100 78 100 93 100 100 41 45 100 100 100 100 100 100 100 5 3 5 5 5 5 14 7 5 0 0 0 0 0 0 0 0 3 16 4 6 9 5 0 0 0 0 0 0 0
100 54 22 94 100 100 44 98 100 100 100 100 100 100 100 94 10 12 5 5 5 5 30 5 5 0 0 0 0 0 0 4 2 2 2 11 2 2 0 0 0 0 0 0 0
100 90 1 27 72 65 90 100 100 100 100 100 100 100 100 100 41 5 36 35 5 5 39 54 28 5 0 0 0 0 0 0 2 3 27 5 0 0 0 0 0 0 0 0 0
100 30 33 54 13 77 81 100 100 100 100 100 100 100 100 100 100 6 5 6 19 9 6 5 16 5 5 0 0 0 0 0 2 5 32 3 0 0 0 0 0 0 0 0 0
100 84 91 100 56 99 100 100 100 100 100 100 100 100 100 100 100 100 5 27 98 64 5 5 5 5 5 9 2 0 0 0 0 4 3 3 0 0 0 0 0 0 0 0 0
100 66 68 99 100 100 100 100 100 100 100 100 100 100 100 100 100 100 44 16 89 40 23 5 5 7 5 6 5 5 4 4 0 0 0 0 0 0 0 0 0 0 0 0 0
100 100 99 57 100 100 100 100 100 100 100 100 100 100 100 100 100 100 100 26 99 100 100 57 5 5 5 5 5 5 6 28 5 5 5 3 0 0 0 0 0 0 0 0 0
100 100 100 94 98 100 98 100 100 100 100 100 100 100 100 100 100 100 100 96 58 36 5 6 6 5 5 5 12 77 55 5 5 6 5 3 0 0 0 0 0 0 0 0 0